Flag for U.S.A. Weather past 2 weeks in Vevay, Indiana, U.S.A.

Now
25 °F

Passing clouds.


Feels Like: 25 °F
Forecast: 24 / 37 °F
Wind: No wind

Location: Cincinnati / Northern Kentucky International Airport

Current Time: Dec 19, 2014 at 5:18:55 AM

Latest Report: Dec 19, 2014 at 4:52 AM


Visibility: 6 mi

Pressure: 30.26 "Hg

Humidity: 78%

Dew point: 19 °F

Location of VevayLocation

Historic Weather in Vevay — Graph

°F

Vevay temperature yesterday

Maximum temperature yesterday: 30 °F (at 3:52 PM)
Minimum temperature yesterday: 26 °F (at 1:52 AM)
Average temperature yesterday: 28 °F

Past Weeks' High & Low Weather Summary

 TemperatureHumidityPressure
High57 °F (Dec 6, 1:03 AM)100% (Dec 5, 11:52 AM)30.60 "Hg (Dec 5, 11:52 AM)
Low24 °F (Dec 12, 4:52 AM)43% (Dec 12, 3:52 PM)29.68 "Hg (Dec 16, 4:52 AM)
Average38 °F74%30.21 "Hg
* Reported Dec 4 3:52 AM — Dec 19 3:52 AM, Vevay, Weather by CustomWeather, © 2014

Note: Actual official high and low records may vary slightly from our data, if they occured in-between our weather recording intervals... More about our weather records

Advertising

Vevay weather history for previous 24 hours

 ConditionsComfort  
Time TempWeatherWind HumidityBarometerVisibility
3:52 AM
Dec 19
25 °FPassing clouds.5 mph78%30.26 "Hg7 mi
2:52 AM26 °FClear.3 mph74%30.25 "Hg7 mi
1:52 AM28 °FPassing clouds.5 mph72%30.24 "Hg9 mi
1:04 AM28 °FMostly cloudy.5 mph74%30.24 "Hg8 mi
12:52 AM28 °FMostly cloudy.5 mph75%30.26 "Hg8 mi
11:52 PM
Dec 18
27 °FPassing clouds.3 mph75%30.26 "Hg8 mi
10:52 PM29 °FMostly cloudy.3 mph69%30.26 "Hg9 mi
9:52 PM29 °FOvercast.3 mph69%30.25 "Hg9 mi
8:52 PM28 °FMostly cloudy.No wind72%30.24 "Hg9 mi
7:52 PM28 °FMostly cloudy.3 mph72%30.24 "Hg9 mi
6:52 PM29 °FOvercast.5 mph66%30.24 "Hg9 mi
5:52 PM29 °FOvercast.No wind66%30.23 "Hg10 mi
4:52 PM30 °FOvercast.No wind64%30.23 "Hg9 mi
3:52 PM30 °FMore clouds than sun.3 mph64%30.24 "Hg9 mi
2:52 PM29 °FMostly cloudy.No wind66%30.23 "Hg9 mi
1:55 PM28 °FLight snow. More clouds than sun.No wind69%30.22 "Hg7 mi
12:52 PM28 °FMostly cloudy.3 mph66%30.27 "Hg8 mi
11:52 AM28 °FOvercast.6 mph66%30.29 "Hg9 mi
10:52 AM28 °FOvercast.No wind66%30.28 "Hg9 mi
9:52 AM27 °FMostly cloudy.No wind69%30.30 "Hg9 mi
8:52 AM27 °FMore clouds than sun.3 mph69%30.31 "Hg9 mi
7:52 AM26 °FMostly cloudy.No wind71%30.29 "Hg10 mi
6:52 AM26 °FOvercast.No wind69%30.28 "Hg10 mi
5:52 AM26 °FMostly cloudy.3 mph69%30.27 "Hg10 mi
Weather by CustomWeather, © 2014

See weather overviewHow to use our weather pages